Regional Weather Roundup
Issued by NWS

Home | Current Version | Previous Version | Text Only | Print | Product List | Glossary Off
Versions: 1 2 3 4 5 6 7 8 9 10 11 12 13 14 15 16 17 18 19 20 21 22 23 24 25 26 27 28 29 30 31 32 33 34 35 36 37 38 39 40 41 42 43 44 45 46 47 48 49 50

416
ASUS43 KMKX 240400
RWRWI

WISCONSIN REGIONAL WEATHER ROUNDUP
NATIONAL WEATHER SERVICE MILWAUKEE/SULLIVAN WI
1100 PM CDT WED AUG 23 2017

NOTE: "FAIR" INDICATES FEW OR NO CLOUDS BELOW 12,000 FEET WITH NO
SIGNIFICANT WEATHER AND/OR OBSTRUCTIONS TO VISIBILITY.

WIZ001-002-006>008-014>016-023>028-240500-
NORTHWEST WISCONSIN

CITY           SKY/WX    TMP DP  RH WIND       PRES   REMARKS
SUPERIOR ARPT  DRIZZLE   55  53  91 CALM      30.09F
ASHLAND        CLOUDY    53  51  93 CALM      30.10R
HAYWARD        LGT RAIN  56  52  86 N3        30.11R
SIREN          LGT RAIN  59  52  79 N10G18    30.11R
CUMBERLAND     CLOUDY    55  50  82 CALM      30.08R
RICE LAKE      CLOUDY    56  55  94 CALM      30.09R
CHETEK         CLOUDY    56  53  89 CALM      30.08R
LADYSMITH      CLOUDY    56  51  82 NE5       30.10R
EAU CLAIRE     PTCLDY    54  51  90 E3        30.06R
MENOMONIE      CLOUDY    59  52  79 CALM      30.06S
NEW RICHMOND   CLOUDY    58  51  76 CALM      30.07R
OSCEOLA        CLOUDY    60  53  77 CALM      30.10R
$$

WIZ003>005-009-010-017-018-240500-
NORTH CENTRAL WISCONSIN

CITY           SKY/WX    TMP DP  RH WIND       PRES   REMARKS
MANITOWISH WTR CLOUDY    44  44 100 CALM      30.09S
ARBOR VITAE    MOCLDY    46  43  89 CALM      30.09S
WOODRUFF       MOCLDY    46  43  89 CALM      30.09S
RHINELANDER    CLEAR     48  44  86 N3        30.09S
EAGLE RIVER    CLOUDY    44  43  99 CALM      30.09S
LAND O LAKES   PTCLDY    43  42  97 CALM      30.11S
PHILLIPS       CLOUDY    51  48  92 CALM      30.09R
TOMAHAWK         N/A     46  43  92 CALM      30.09S
MEDFORD        PTCLDY    49  46  88 NE3       30.08R
MERRILL        CLOUDY    48  45  87 CALM      30.08S
$$

WIZ029-030-035-036-043>047-240500-
CENTRAL WISCONSIN

CITY           SKY/WX    TMP DP  RH WIND       PRES   REMARKS
WAUSAU         CLEAR     55  43  63 CALM      30.06S
MOSINEE        CLEAR     54  45  71 N7        30.08S
MARSHFIELD     CLEAR     56  46  69 NE7       30.06S
STEVENS POINT  CLEAR     53  48  84 CALM      30.07S
WAUPACA        CLEAR     59  50  73 N3        30.05F
WAUTOMA        NOT AVBL
WISC RAPIDS    CLEAR     56  49  77 NE6       30.07S
CAMP DOUGLAS   NOT AVBL
$$

WIZ011>013-019>022-031-037>040-048>050-240500-
NORTHEAST WISCONSIN

CITY           SKY/WX    TMP DP  RH WIND       PRES   REMARKS
ANTIGO         CLEAR     47  44  90 E3        30.08S
SHAWANO        CLOUDY    61  48  64 N9        30.07R
OCONTO         CLEAR     57  46  68 NE9       30.06S
STURGEON BAY   NOT AVBL
GREEN BAY      MOCLDY    58  51  78 N9        30.05R
MANITOWOC      NOT AVBL
APPLETON       PTCLDY    57  46  67 N12       30.03S
CLINTONVILLE   CLEAR     57  46  67 N5        30.06S
OSHKOSH        NOT AVBL
$$

WIZ032>034-041-042-053>061-240500-
SOUTHWEST WISCONSIN

CITY           SKY/WX    TMP DP  RH WIND       PRES   REMARKS
LA CROSSE      CLEAR     61  55  81 E3        30.05S
SPARTA         CLEAR     50  49  98 CALM      30.06F
VIROQUA        CLEAR     59  53  79 NE3       30.07R
BOSCOBEL       NOT AVBL
PRAIRIE DU CHI CLEAR     57  53  86 E3        30.05S
PLATTEVILLE    CLEAR     57  55  92 N3        30.06R
$$

WIZ056-057-062-063-064-067-068-240500-
SOUTH CENTRAL WISCONSIN

CITY           SKY/WX    TMP DP  RH WIND       PRES   REMARKS
REEDSBURG      CLEAR     56  55  95 CALM      30.06R
BARABOO/DELLS  CLEAR     55  49  82 CALM      30.06S
LONE ROCK      NOT AVBL
MINERAL POINT  CLEAR     59  55  88 CALM      30.06S
MADISON        NOT AVBL
MIDDLETON      MOCLDY    55  55 100 CALM      30.05S VSB<1/4
WATERTOWN      CLEAR     55  55  99 CALM      30.04R
MONROE         CLEAR     63  50  63 NW5       30.05S
JANESVILLE     CLEAR     59  59 100 CALM      30.04R
$$

WIZ051-052-058>065-066-070>072-240500-
SOUTHEAST WISCONSIN

CITY           SKY/WX    TMP DP  RH WIND       PRES   REMARKS
MILWAUKEE      PTCLDY    64  56  75 SW5       30.03S
WAUKESHA       CLEAR     54  50  87 CALM      30.05
MILWAUKEE/TIMM CLEAR     59  52  77 CALM      30.04S
RACINE         CLEAR     60  57  89 CALM      30.05R
KENOSHA        CLEAR     57  55  93 CALM      30.03S
FOND DU LAC    PTCLDY    59  50  72 NW7       30.03S
SHEBOYGAN      PTCLDY    57  57 100 CALM      30.03S
WEST BEND      CLEAR     54  54 100 CALM      30.04R
JUNEAU         MOCLDY    55  52  88 CALM      30.05S
$$

LSZ147-162-240500-
LAKE SUPERIOR

STATION/POSITION TIME  TEMP    WIND        PRES    WAVE
                       AIR SEA DIR/SP/G            HT/PER
                 (UTC) (F)     (DEG/KT/KT) (MB)    (FT/S)
W MID LAKE BUOY  0250   60 60  280/  6/  6 1018.4R   1
DEVILS ISLAND    0300   60     210/  4/  5 1018.7R
PORT WING        0140   64     120/  5/  8 1017.9S
SAXON HARBOR     0330   53     180/  5/  7 1018.3R
$$

LMZ867-665-643>646-240500-
LAKE MICHIGAN

STATION/POSITION TIME  TEMP    WIND        PRES    WAVE
                       AIR SEA DIR/SP/G            HT/PER
                 (UTC) (F)     (DEG/KT/KT) (MB)    (FT/S)
S GREEN BAY BUOY 0330   64 70   50/ 19/ 25 1017.2R
N MID LAKE BUOY  0250   58 66  360/ 17/ 23 1018.0R   3/ 4
NORTHPORT PIER   0340   59     360/ 13/ 15 1017.9S
KEWAUNEE LAKESHO 0330   59     300/  3/  3 1016.3S
SHEBOYGAN LAKESH 0300   66     170/  9/ 10 1016.4R
PORT WASHINGTON  0340   64     280/  3/  5 1017.3S
ATWATER BUOY     0209   69 70  180/  8/ 10 1016.8
MILWAUKEE LAKESH 0330   66     220/  4/  4   N/A
S MID LAKE BUOY  0250   67 71   70/  2/  4 1016.9R   2/ 6
KENOSHA   LAKESH 0300   66     280/  1/  2 1016.6
$$

TC  - TEMPERATURE IN CELSIUS
VSB - VISIBILITY IN STATUTE MILES
WCI - WIND CHILL INDEX
HX  - HEAT INDEX





USA.gov is the U.S. government's official web portal to all federal, state and local government web resources and services.